Weather in Nagornoye

Russia / Chechen Republic     43°25′00″N   45°10′49″E
temp.,
°C
wind,
m/s
gust,
m/s
humid.,
%
clouds,
%
prec.,
mm/h
press.,
hPa
HPBL,
m
28 february, sun
sun2800:00+4ssw117871 0.0 101722
03:00+3ese228146 0.0 101622
06:00+2w239189 0.0 101739
09:00+3w229395 0.1 101627
12:00+3wnw2297100 0.1 1015108
15:00+3wnw3597100 0.5 1015185
18:00+3wnw3598100 0.4 1017154
21:00+2wnw3698100 1.1 1018207
1 march, mon
mon100:00+2nnw3599100 2.1 1019262
03:00+2n1399100 2.9 1020185
06:00+1w0199100 0.6 102249
09:00+1nw2398100 2.9 1024157
12:00+2wnw2396100 1.5 1024193
15:00+3wnw1291100 1.6 1025306
18:00+2w118871 0.1 102722
21:00+1wsw128673 0.1 102822
2 march, tue
tue200:000w228581 0.0 102923
03:000wnw128889 0.0 102822
06:000wsw118623 0.0 102921
09:00+3sw127312 0.0 1029305
12:00+5wnw12600 0.0 1027878
15:00+6wnw22540 0.0 10251111
18:00+4wsw23700 0.0 102523
21:00+2sw22720 0.0 102522
3 march, wed
wed300:00+1nw128018 0.0 102422
03:00+1ssw117855 0.0 102322
06:00+1ene0080100 0.0 102122
09:00+3nw2373100 0.0 1020410
12:00+4nnw0169100 0.0 1019541
15:00+7wnw51253100 0.0 10181406
18:00+2nw6996100 0.9 1020486
21:00+2wnw5896100 2.9 1024535
4 march, thu
thu400:00+1wnw4796100 0.3 1025408
03:00+1w3696100 0.8 1026398
06:000wnw249799 0.1 1027233
09:00+3wnw347694 0.1 1028489
12:00+5nw336484 0.0 1026911
15:00+6n226061 0.0 1025910
18:00+3ne227114 0.0 102531
21:00+2e22727 0.0 102623